Weather in Indianapolis

United States     39°46′00″N   86°09′23″W
temp.,
°C
wind,
m/s
gust,
m/s
humid.,
%
clouds,
%
prec.,
mm/h
press.,
hPa
HPBL,
m
6 may, thu
thu623:00+10ne37492 0.0 1022398
02:00+9ne1254100 0.0 1022105
05:00+9se1151100 0.0 102153
08:00+8sse245199 0.0 1021177
11:00+13s474552 0.0 1019705
14:00+17sw6846100 0.0 10162059
17:00+13wsw4681100 2.9 1013876
20:00+9nnw6108346 9.4 1016946
7 may, fri
fri723:00+7nnw412780 0.0 1018667
02:00+6nw38775 0.0 1018304
05:00+5wnw28785 0.0 1017252
08:00+6wnw26805 0.0 1017212
11:00+12wnw595395 0.0 10171453
14:00+15wnw7114632 0.6 10152178
17:00+15nw7124010 0.0 10142375
20:00+12nw595059 0.0 10141819
8 may, sat
sat823:00+9n376245 0.0 1017820
02:00+7nnw27705 0.0 1018501
05:00+6nnw37740 0.0 1019368
08:00+6n26660 0.0 1021389
11:00+10nne22421 0.0 10201172
14:00+15ssw11325 0.0 10191754
17:00+15sw2235100 0.0 10171838
20:00+14ssw124596 0.0 1017868
9 may, sun
sun923:00+9sw2482100 0.3 1018258
02:00+8sse2596100 9.0 1017331
05:00+8ese4896100 13.1 1015452
08:00+8ese51297100 26.1 1012529
11:00+8ese51297100 19.0 1010563
14:00+9ese4997100 21.6 1007356
17:00+10ene3599100 3.1 1004187
20:00+13w1399100 7.8 1002229
10 may, mon
mon1023:00+15wsw31297100 4.8 1002649
02:00+12nw3697100 6.0 1003487
05:00+9n4894100 0.3 1007533
08:00+7n61091100 0.4 1012841
11:00+9nne6978100 0.1 1015940
14:00+10n4766100 0.1 10171116
17:00+11n4757100 0.0 10191413
20:00+10nnw5756100 0.0 10211130